Miscellaneous Local Product
Issued by NWS North Platte, NE

Home | Current Version | Previous Version | Graphics & Text | Print | Product List | Glossary On
Versions: 1 2 3 4 5 6 7 8 9 10 11 12 13 14 15 16 17 18 19 20 21 22 23 24 25 26 27 28 29 30 31 32 33 34 35 36 37 38 39 40 41 42 43 44 45 46 47 48 49 50
533
AXUS43 KLBF 281610
MISLBF


WESTERN AND NORTH CENTRAL NEBRASKA HOURLY WEATHER ROUNDUP
NATIONAL WEATHER SERVICE NORTH PLATTE NE
1100 AM CDT SAT MAY 28 2016

NOTE: "FAIR" INDICATES FEW OR NO CLOUDS BELOW 12,000 FEET WITH NO
SIGNIFICANT WEATHER AND/OR OBSTRUCTIONS TO VISIBILITY.

NOTE: STATIONS NOT REPORTING VARIABLES SUCH AS SKY/WEATHER OR
PRESSURE ARE PROVIDED BY RAWS AND APRS NETWORKS AND ARE NOT UNDER
NATIONAL WEATHER SERVICE QUALITY CONTROL.

...OBSERVATIONS IN AND NEAR THE EASTERN PANHANDLE OF NEBRASKA...

CITY           SKY/WX    TMP DP  RH WIND       PRES   REMARKS
PINE RIDGE     SUNNY     65  47  52 VRB5      29.92R
CHADRON        SUNNY     65  48  54 SW5       29.92S
ALLIANCE       SUNNY     63  45  51 MISG      29.94S
SIDNEY         SUNNY     61  44  53 VRB5      29.98S
CRESCENT LAKE    N/A     64  46  53 W6          N/A
BIG SPRINGS      N/A     57  53  85 SW9         N/A
$$

...OBSERVATIONS IN NORTHERN NEBRASKA AND FAR SOUTHERN SOUTH DAKOTA...

CITY           SKY/WX    TMP DP  RH WIND       PRES   REMARKS
WINNER         FAIR      63  55  75 NW8       29.85S
VALENTINE      CLOUDY    63  51  65 NW10      29.88S
THEDFORD       CLOUDY    64  53  66 N8        29.91R
AINSWORTH      CLOUDY    61  53  76 NW10      29.88R
O`NEILL        CLOUDY    60  58  90 NW9       29.83S
ORD            CLOUDY    62  56  80 NW13      29.84R
BROKEN BOW     CLOUDY    63  54  72 NW14      29.88R
BUTTE            N/A     60  57  91 W12         N/A
CHAMBERS         N/A     64  58  81 N3          N/A
EWING            N/A     58  56  95 NW8         N/A
$$

...OBSERVATIONS IN SOUTHWEST NEBRASKA AND FAR NORTHEAST COLORADO...

CITY           SKY/WX    TMP DP  RH WIND       PRES   REMARKS
WRAY           FAIR      64  46  52 SW3       29.99R
HOLYOKE        FAIR      64  48  55 W6        29.97F
IMPERIAL       SUNNY     63  50  62 W7        29.96R
OGALLALA       MOSUNNY   64  54  70 W9        29.95S
NORTH PLATTE   SUNNY     66  54  65 W7        29.91S
MCCOOK         SUNNY     66  54  65 NW8       29.93S
LEXINGTON      MOSUNNY   65  56  71 W12       29.90R
PAXTON           N/A     59  55  88 CALM        N/A
STAPLETON        N/A     65  54  66 CALM        N/A
GOTHENBURG       N/A     62  52  69 W7          N/A
CALLAWAY         N/A     61  56  84 NW12        N/A
$$

...OBSERVATIONS IN CENTRAL LINCOLN COUNTY AREA...

CITY           SKY/WX    TMP DP  RH WIND       PRES   REMARKS
N.P. AIRPORT   SUNNY     66  54  65 W7        29.91S
N.P. DOWNTOWN    N/A     66  54  65 W3          N/A
N.P. SOUTHEAST   N/A     66  52  60 NW3         N/A
N.P. HILLCREST   N/A     65  54  66 W8          N/A
$$

...SOME OBSERVATIONS FROM AROUND THE REGION...

CITY           SKY/WX    TMP DP  RH WIND       PRES   REMARKS
DENVER         MOSUNNY   62  37  39 SE5       30.04S
LARAMIE        PTSUNNY   54  34  46 VRB7      30.07S
CHEYENNE       CLOUDY    57  38  48 W5        30.04S
SCOTTSBLUFF    SUNNY     63  46  54 NW9       29.97S
RAPID CITY     SUNNY     66  46  48 VRB5      29.91S
BISMARCK       CLOUDY    66  56  70 NE7       29.88F
PIERRE         CLOUDY    65  54  67 N8        29.84R
SIOUX FALLS    CLOUDY    63  60  90 N10       29.77S
OMAHA          CLOUDY    67  58  72 SW12      29.78S
GRAND ISLAND   PTSUNNY   66  57  72 W16       29.85R
KANSAS CITY    PTSUNNY   67  61  81 W10       29.84R
WICHITA        MOSUNNY   71  59  65 NW9       29.91R
OKLAHOMA CITY  MOSUNNY   73  62  68 VRB3      29.95S
DALLAS         CLOUDY    73  65  75 S6        29.96R
AMARILLO       SUNNY     69  46  43 NE8       30.05S
DODGE CITY     SUNNY     68  52  56 NW12      29.97R
HAYS           MOSUNNY   64  52  63 W9        29.93S
GOODLAND       SUNNY     64  49  57 W7        29.99R
$$




USA.gov is the U.S. government's official web portal to all federal, state and local government web resources and services.